Kezdőlap
METAR-TAF:

METAR-TAF

Repülőterek :

Orr Regional Airport

Orr, Minnesota, Amerikai Egyesült Államok

földrajzi szélesség: 48-01N, földrajzi hosszúság: 092-52W, magasság: 397 m

Jelenlegi meteorológiai megfigyelések

A jelentés 18 perccel ezelõtt készült, 16:53 UTC
Déli szél 8 kt
Hőmérséklet 23°C
Páratartalom 53%
Légköri nyomás 1023 hPa
Látótávolság: 16.1 km
Derült ég

METAR: KORB 251653Z AUTO 17008KT 10SM CLR 23/13 A3021 RMK AO2

Idő: 12:11 (17:11 UTC)


TAF: hiányzik

Meteorológiai megfigyelések és előrejelzések több, mint 4000 repülőtéren (METAR és TAF jelentéseket).

A térképen piros és sárga pontok jelzik az elérhető meteorológiai állomásokat.

Mozgassa az egeret a pont fölött, hogy megjelenjen az állomás neve.

Azután kattintson az időjárási megfigyelések és előrejelzések megtekintéséhez.

A térkép megváltoztatása: kattintson a fekete keresztel jelölt zöld gombra ráközelítéshez, a vonallal jelölt zöld gombra távolításhoz, vagy a zöld nyilakra a szomszédos térképek eléréséhez.


METAR-TAF: